This is the latest recevied weather packets stored in our database for station/object KB4MOX. If no packets are shown the sender has not sent any weather packets the latest 10 day(s).
| Time | Temp. | Humidity | Pressure | Rain* | Wind** | Luminosity | Snow |
|---|---|---|---|---|---|---|---|
| 1778111702 | 26.67° C | 54% | 1012.2 hPa | 0 mm | - | 20 W/m² | - |
| 1778111397 | 27.22° C | 54% | 1012.2 hPa | 0 mm | - | 29 W/m² | - |
| 1778111095 | 27.22° C | 54% | 1012.2 hPa | 0 mm | - | 35 W/m² | - |
| 1778110792 | 27.22° C | 54% | 1012.9 hPa | 0 mm | - | 46 W/m² | - |
| 1778110489 | 27.22° C | 53% | 1012.8 hPa | 0 mm | - | 45 W/m² | - |
| 1778110185 | 27.22° C | 53% | 1012.8 hPa | 0 mm | - | 48 W/m² | - |
| 1778109882 | 27.22° C | 52% | 1013.1 hPa | 0 mm | - | 52 W/m² | - |
| 1778109577 | 27.78° C | 52% | 1013.3 hPa | 0 mm | - | 46 W/m² | - |
| 1778109275 | 27.78° C | 51% | 1012.9 hPa | 0 mm | - | 59 W/m² | - |
| 1778108972 | 27.78° C | 52% | 1012.8 hPa | 0 mm | - | 59 W/m² | - |
| 1778108668 | 27.78° C | 51% | 1013 hPa | 0 mm | - | 51 W/m² | - |
| 1778108365 | 27.78° C | 51% | 1013 hPa | 0 mm | - | 51 W/m² | - |
| 1778108063 | 27.78° C | 50% | 1013 hPa | 0 mm | - | 52 W/m² | - |
| 1778107760 | 28.33° C | 49% | 1012.7 hPa | 0 mm | - | 53 W/m² | - |
| 1778107457 | 28.33° C | 49% | 1012.6 hPa | 0 mm | - | 73 W/m² | - |
| 1778107153 | 28.89° C | 49% | 1012.6 hPa | 0 mm | - | 90 W/m² | - |
| 1778106848 | 28.89° C | 48% | 1013.1 hPa | 0 mm | - | 110 W/m² | - |
| 1778106546 | 28.89° C | 49% | 1012.9 hPa | 0 mm | - | 90 W/m² | - |
| 1778106242 | 29.44° C | 47% | 1012.8 hPa | 0 mm | - | 137 W/m² | - |
| 1778105939 | 29.44° C | 47% | 1012.8 hPa | 0 mm | - | 158 W/m² | - |
| 1778105636 | 28.89° C | 48% | 1012.6 hPa | 0 mm | - | 187 W/m² | - |
| 1778105334 | 28.89° C | 49% | 1012.6 hPa | 0 mm | - | 143 W/m² | - |
| 1778105029 | 29.44° C | 47% | 1012.5 hPa | 0 mm | - | 134 W/m² | - |
| 1778104726 | 30° C | 47% | 1012.7 hPa | 0 mm | - | 167 W/m² | - |
| 1778104422 | 30° C | 47% | 1012.4 hPa | 0 mm | - | 225 W/m² | - |
* Rain latest hour (hover to see other rain measurements)
** Current wind speed in m/s (hover to see current wind gust speed)